Flag for India Weather past 2 weeks in Jaipur, Rajasthan, India

Now
77 °F

Thunderstorms. Partly cloudy.


Feels Like: 79 °F
Forecast: 71 / 89 °F
Wind: 6 mph from East

Location: Jaipur / Sanganer

Current Time: Mar 30, 2015 at 1:15:55 AM

Latest Report: Mar 30, 2015 at 12:00 AM


Visibility: 2 mi

Pressure: 29.83 "Hg

Humidity: 65%

Dew point: 64 °F

Location of JaipurLocation

Historic Weather in Jaipur — Graph

°F

Jaipur temperature yesterday

Maximum temperature yesterday: 95 °F (at 4:00 PM)
Minimum temperature yesterday: 79 °F (at 5:00 AM)
Average temperature yesterday: 85 °F

Past Weeks' High & Low Weather Summary

 TemperatureHumidityPressure
High99 °F (Mar 25, 4:00 PM)100% (Mar 15, 12:00 AM)30.15 "Hg (Mar 15, 12:00 AM)
Low59 °F (Mar 15, 2:00 AM)17% (Mar 24, 3:30 PM)29.74 "Hg (Mar 29, 4:00 PM)
Average79 °F48%29.98 "Hg
* Reported Midnight between Mar 14 and Mar 15 — Midnight between Mar 29 and Mar 30, Jaipur, Weather by CustomWeather, © 2015

Note: Actual official high and low records may vary slightly from our data, if they occured in-between our weather recording intervals... More about our weather records

Advertising

Jaipur weather history for previous 24 hours

 ConditionsComfort  
Time TempWeatherWind HumidityBarometerVisibility
12:00 AM
Mon, Mar 30
77 °FThunderstorms. Partly cloudy.6 mph65%29.83 "Hg1 mi
11:00 PM
Sun, Mar 29
81 °FThunderstorms. Partly cloudy.8 mph51%29.89 "Hg1 mi
10:00 PM81 °FPartly cloudy.9 mph51%29.83 "Hg1 mi
9:00 PM81 °FPartly cloudy.8 mph51%29.80 "Hg2 mi
8:00 PM84 °FPartly cloudy.13 mph40%29.77 "Hg2 mi
6:00 PM93 °FBroken clouds.8 mph17%29.74 "Hg2 mi
5:00 PM93 °FBroken clouds.2 mph21%29.74 "Hg2 mi
4:00 PM95 °FBroken clouds.3 mph22%29.74 "Hg2 mi
2:00 PM93 °FBroken clouds.6 mph24%29.80 "Hg2 mi
12:00 PM90 °FBroken clouds.5 mph26%29.83 "Hg2 mi
11:00 AM90 °FBroken clouds.5 mph26%29.86 "Hg2 mi
9:00 AMN/ABroken clouds.5 mphN/A29.83 "Hg2 mi
7:00 AM79 °FBroken clouds.2 mph48%29.80 "Hg2 mi
6:00 AM79 °FPartly cloudy.5 mph48%29.80 "Hg2 mi
5:00 AM79 °FPassing clouds.5 mph51%29.80 "Hg2 mi
3:00 AM81 °FPassing clouds.5 mph42%29.80 "Hg2 mi
2:00 AM81 °FHaze.6 mph42%29.83 "Hg2 mi
1:00 AM82 °FHaze.5 mph37%29.83 "Hg2 mi
Weather by CustomWeather, © 2015

See weather overviewHow to use our weather pages